Zurück zum Katalog

MIDAS 5 DEB

AktivPO
NORAD 274·DEBRIS·🇺🇸 United States

Gestartet Apr 9, 1962 von Vandenberg Space Force Base

Loading…

Nächste Überflüge (nächste 24 Stunden)

TLE

AktuellSource: Space-Track

Epoche: Sep 9, 2026, 04:18 UTC

1 00274U 62010D   26252.17939967 -.00000073  00000-0 -16056-1 0  9991
2 00274  86.6712 321.5114 0345655  67.0589 296.6400  9.39364254208670

Verfolge MIDAS 5 DEB in Echtzeit mit AllMySat

Download on the App Store